Location: Bydgoszcz
(53.1235°N, 18.0084°E)
Time: 20:37:50
(UTC+02:00)

ISS - Pass Details

Date: 22 April 2026
Orbit: 414 x 424 km, 51.6° (Epoch: 12 May)

Event Time Altitude Azimuth Distance (km) Brightness Sun altitude
Exits shadow 03:56:51 - 171° (S) 1,533 -1.2 -13.1°
Reaches altitude 10° 03:57:03 10° 169° (SSE) 1,495 -1.3 -13.1°
Maximum altitude 03:58:37 13° 140° (SE) 1,339 -1.2 -12.9°
Drops below altitude 10° 04:00:12 10° 112° (ESE) 1,503 -0.6 -12.8°
Sets 04:03:12 0° 83° (E) 2,375 1.1 -12.4°
